,,,PA_Meas_PMT16A,,PR_Meas_QMR101_102,,RH_Meas_QMH101,,SR_Meas_QMS101,,TA_Meas_QMH101,,GenWind,,GenWind,
date,time,status,PA,status,PR,status,RH,status,SR,status,TA,status,DirAvg,status,SpdAvg,
2014-07-25, 00:00:04,VALID,1010.65,VALID,0,VALID,85.927,VALID,0,VALID,26.0916,VALID,177,VALID,0,
2014-07-25, 00:01:04,VALID,1010.66,VALID,0,VALID,85.9575,VALID,0,VALID,26.1111,VALID,192,VALID,0,
2014-07-25, 00:02:04,VALID,1010.65,VALID,0,VALID,85.8812,VALID,0,VALID,26.1306,VALID,204,VALID,0,
2014-07-25, 00:03:04,VALID,1010.65,VALID,0,VALID,85.7821,VALID,0,VALID,26.1091,VALID,201,VALID,0,
2014-07-25, 00:04:04,VALID,1010.62,VALID,0,VALID,85.5686,VALID,0,VALID,26.1306,VALID,197,VALID,0,
2014-07-25, 00:05:04,VALID,1010.63,VALID,0,VALID,85.805,VALID,0,VALID,26.1306,VALID,197,VALID,0,
2014-07-25, 00:06:04,VALID,1010.62,VALID,0,VALID,85.8584,VALID,0,VALID,26.1306,VALID,192,VALID,0,
2014-07-25, 00:07:04,VALID,1010.65,VALID,0,VALID,85.7592,VALID,0,VALID,26.1501,VALID,213,VALID,0,
2014-07-25, 00:08:04,VALID,1010.64,VALID,0,VALID,85.7821,VALID,0,VALID,26.1501,VALID,205,VALID,0,
2014-07-25, 00:09:04,VALID,1010.67,VALID,0,VALID,85.7897,VALID,0,VALID,26.1501,VALID,183,VALID,0,
2014-07-25, 00:10:04,VALID,1010.66,VALID,0,VALID,85.7516,VALID,0,VALID,26.1696,VALID,183,VALID,0,
2014-07-25, 00:11:04,VALID,1010.65,VALID,0,VALID,85.7363,VALID,0,VALID,26.1696,VALID,183,VALID,0,
2014-07-25, 00:12:04,VALID,1010.65,VALID,0,VALID,85.7745,VALID,0,VALID,26.1696,VALID,183,VALID,0,
2014-07-25, 00:13:04,VALID,1010.65,VALID,0,VALID,85.6296,VALID,0,VALID,26.1696,VALID,183,VALID,0,
2014-07-25, 00:14:04,VALID,1010.63,VALID,0,VALID,85.7363,VALID,0,VALID,26.1696,VALID,183,VALID,0,
2014-07-25, 00:15:04,VALID,1010.64,VALID,0,VALID,85.866,VALID,0,VALID,26.1696,VALID,183,VALID,0,
2014-07-25, 00:16:04,VALID,1010.63,VALID,0,VALID,85.8202,VALID,0,VALID,26.1696,VALID,219,VALID,0,
2014-07-25, 00:17:04,VALID,1010.62,VALID,0,VALID,85.866,VALID,0,VALID,26.1501,VALID,219,VALID,0,
2014-07-25, 00:18:04,VALID,1010.64,VALID,0,VALID,85.7821,VALID,0,VALID,26.1696,VALID,176,VALID,0,
2014-07-25, 00:19:04,VALID,1010.65,VALID,0,VALID,85.8584,VALID,0,VALID,26.1696,VALID,187,VALID,0,
2014-07-25, 00:20:04,VALID,1010.66,VALID,0,VALID,85.8431,VALID,0,VALID,26.1501,VALID,187,VALID,0,
2014-07-25, 00:21:04,VALID,1010.68,VALID,0,VALID,85.8126,VALID,0,VALID,26.1306,VALID,187,VALID,0,
2014-07-25, 00:22:04,VALID,1010.67,VALID,0,VALID,85.9346,VALID,0,VALID,26.1091,VALID,187,VALID,0,
2014-07-25, 00:23:04,VALID,1010.69,VALID,0,VALID,85.866,VALID,0,VALID,26.1306,VALID,187,VALID,0,
2014-07-25, 00:24:04,VALID,1010.72,VALID,0,VALID,85.9422,VALID,0,VALID,26.0916,VALID,187,VALID,0,
2014-07-25, 00:25:04,VALID,1010.72,VALID,0,VALID,86.0033,VALID,0,VALID,26.0721,VALID,187,VALID,0,
2014-07-25, 00:26:04,VALID,1010.7,VALID,0,VALID,86.1939,VALID,0,VALID,26.0721,VALID,187,VALID,0,
2014-07-25, 00:27:04,VALID,1010.71,VALID,0,VALID,86.0338,VALID,0,VALID,26.0526,VALID,187,VALID,0,
2014-07-25, 00:28:04,VALID,1010.72,VALID,0,VALID,85.9651,VALID,0,VALID,26.0136,VALID,187,VALID,0,
2014-07-25, 00:29:04,VALID,1010.74,VALID,0,VALID,86.0566,VALID,0,VALID,25.9941,VALID,187,VALID,0,
2014-07-25, 00:30:04,VALID,1010.73,VALID,0,VALID,85.9422,VALID,0,VALID,25.9356,VALID,187,VALID,0,
2014-07-25, 00:31:04,VALID,1010.73,VALID,0,VALID,85.7897,VALID,0,VALID,25.9181,VALID,187,VALID,0,
2014-07-25, 00:32:04,VALID,1010.73,VALID,0,VALID,85.9117,VALID,0.112112,VALID,25.8576,VALID,187,VALID,0,
2014-07-25, 00:33:04,VALID,1010.71,VALID,0,VALID,86.2015,VALID,0,VALID,25.7991,VALID,187,VALID,0,
2014-07-25, 00:34:04,VALID,1010.72,VALID,0,VALID,86.5447,VALID,0,VALID,25.7601,VALID,187,VALID,0,
2014-07-25, 00:35:04,VALID,1010.69,VALID,0,VALID,86.8345,VALID,0.112112,VALID,25.7016,VALID,187,VALID,0,
2014-07-25, 00:36:04,VALID,1010.71,VALID,0,VALID,87.1547,VALID,0,VALID,25.6431,VALID,187,VALID,0,
2014-07-25, 00:37:04,VALID,1010.7,VALID,0,VALID,87.4216,VALID,0.112112,VALID,25.6041,VALID,187,VALID,0,
2014-07-25, 00:38:04,VALID,1010.68,VALID,0,VALID,87.8944,VALID,0.112112,VALID,25.5846,VALID,187,VALID,0,
2014-07-25, 00:39:04,VALID,1010.72,VALID,0,VALID,87.7953,VALID,0.112112,VALID,25.5047,VALID,187,VALID,0,
2014-07-25, 00:40:04,VALID,1010.69,VALID,0,VALID,88.0622,VALID,0,VALID,25.4677,VALID,187,VALID,0,
2014-07-25, 00:41:04,VALID,1010.66,VALID,0,VALID,88.3749,VALID,0,VALID,25.4092,VALID,187,VALID,0,
2014-07-25, 00:42:04,VALID,1010.67,VALID,0,VALID,88.8858,VALID,0,VALID,25.3702,VALID,187,VALID,0,
2014-07-25, 00:43:04,VALID,1010.64,VALID,0,VALID,89.0764,VALID,0,VALID,25.3117,VALID,187,VALID,0,
2014-07-25, 00:44:04,VALID,1010.62,VALID,0,VALID,89.6865,VALID,0,VALID,25.2708,VALID,187,VALID,0,
2014-07-25, 00:45:04,VALID,1010.61,VALID,0,VALID,89.8543,VALID,0,VALID,25.2727,VALID,187,VALID,0,
2014-07-25, 00:46:04,VALID,1010.61,VALID,0,VALID,89.9915,VALID,0,VALID,25.2337,VALID,187,VALID,0,
2014-07-25, 00:47:04,VALID,1010.63,VALID,0,VALID,90.9981,VALID,0,VALID,25.1947,VALID,187,VALID,0,
2014-07-25, 00:48:04,VALID,1010.61,VALID,0,VALID,91.8675,VALID,0.112112,VALID,25.1752,VALID,187,VALID,0,
2014-07-25, 00:49:04,VALID,1010.62,VALID,0,VALID,92.3326,VALID,0.112112,VALID,25.1362,VALID,187,VALID,0,
2014-07-25, 00:50:04,VALID,1010.59,VALID,0,VALID,93.3468,VALID,0,VALID,25.0954,VALID,187,VALID,0,
2014-07-25, 00:51:04,VALID,1010.57,VALID,0,VALID,94.8873,VALID,0,VALID,25.0759,VALID,187,VALID,0,
2014-07-25, 00:52:04,VALID,1010.56,VALID,0,VALID,95.7413,VALID,0,VALID,25.1167,VALID,187,VALID,0,
2014-07-25, 00:53:04,VALID,1010.56,VALID,0,VALID,95.9244,VALID,0,VALID,25.0778,VALID,187,VALID,0,
2014-07-25, 00:54:04,VALID,1010.55,VALID,0,VALID,96.2523,VALID,0,VALID,25.0973,VALID,187,VALID,0,
2014-07-25, 00:55:04,VALID,1010.57,VALID,0,VALID,96.6946,VALID,0,VALID,25.0973,VALID,187,VALID,0,
2014-07-25, 00:56:04,VALID,1010.54,VALID,0,VALID,96.8166,VALID,0.112112,VALID,25.0973,VALID,187,VALID,0,
2014-07-25, 00:57:04,VALID,1010.54,VALID,0,VALID,97.1063,VALID,0,VALID,25.1187,VALID,187,VALID,0,
2014-07-25, 00:58:04,VALID,1010.53,VALID,0,VALID,97.1979,VALID,0,VALID,25.0759,VALID,187,VALID,0,
2014-07-25, 00:59:04,VALID,1010.53,VALID,0,VALID,97.1292,VALID,0,VALID,25.0778,VALID,187,VALID,0,
2014-07-25, 01:00:04,VALID,1010.55,VALID,0,VALID,97.3961,VALID,0,VALID,25.0778,VALID,187,VALID,0,
2014-07-25, 01:01:04,VALID,1010.55,VALID,0,VALID,97.785,VALID,0,VALID,25.1167,VALID,187,VALID,0,
2014-07-25, 01:02:04,VALID,1010.52,VALID,0,VALID,98.4637,VALID,0,VALID,25.1947,VALID,187,VALID,0,
2014-07-25, 01:03:04,VALID,1010.54,VALID,0,VALID,98.662,VALID,0,VALID,25.2532,VALID,187,VALID,0,
2014-07-25, 01:04:04,VALID,1010.55,VALID,0,VALID,98.7535,VALID,0,VALID,25.3312,VALID,187,VALID,0,
2014-07-25, 01:05:04,VALID,1010.54,VALID,0,VALID,98.8221,VALID,0.112112,VALID,25.3897,VALID,187,VALID,0,
2014-07-25, 01:06:04,VALID,1010.54,VALID,0,VALID,98.8145,VALID,0,VALID,25.4677,VALID,199,VALID,0,
2014-07-25, 01:07:04,VALID,1010.54,VALID,0,VALID,98.7993,VALID,0,VALID,25.5437,VALID,203,VALID,0,
2014-07-25, 01:08:04,VALID,1010.51,VALID,0,VALID,98.3036,VALID,0.112112,VALID,25.6412,VALID,228,VALID,0,
2014-07-25, 01:09:04,VALID,1010.49,VALID,0,VALID,97.6401,VALID,0,VALID,25.7192,VALID,203,VALID,0,
2014-07-25, 01:10:04,VALID,1010.48,VALID,0,VALID,96.9615,VALID,0,VALID,25.8011,VALID,185,VALID,0,
2014-07-25, 01:11:04,VALID,1010.48,VALID,0,VALID,95.6117,VALID,0,VALID,25.8166,VALID,185,VALID,0,
2014-07-25, 01:12:04,VALID,1010.46,VALID,0,VALID,94.1171,VALID,0,VALID,25.8576,VALID,185,VALID,0,
2014-07-25, 01:13:04,VALID,1010.46,VALID,0,VALID,92.8969,VALID,0,VALID,25.8966,VALID,224,VALID,0,
2014-07-25, 01:14:04,VALID,1010.45,VALID,0,VALID,91.57,VALID,0,VALID,25.8966,VALID,197,VALID,0,
2014-07-25, 01:15:04,VALID,1010.43,VALID,0,VALID,91.0896,VALID,0,VALID,25.8966,VALID,197,VALID,0,
2014-07-25, 01:16:04,VALID,1010.43,VALID,0,VALID,90.9524,VALID,0.112112,VALID,25.9161,VALID,201,VALID,0,
2014-07-25, 01:17:04,VALID,1010.45,VALID,0,VALID,90.4796,VALID,0,VALID,25.9141,VALID,195,VALID,0,
2014-07-25, 01:18:04,VALID,1010.42,VALID,0,VALID,90.0754,VALID,0,VALID,25.9356,VALID,221,VALID,0,
2014-07-25, 01:19:04,VALID,1010.41,VALID,0,VALID,89.9,VALID,0,VALID,25.9551,VALID,211,VALID,0,
2014-07-25, 01:20:04,VALID,1010.44,VALID,0,VALID,89.5416,VALID,0,VALID,25.9941,VALID,208,VALID,0,
2014-07-25, 01:21:04,VALID,1010.43,VALID,0,VALID,89.0154,VALID,0,VALID,25.9941,VALID,207,VALID,0,
2014-07-25, 01:22:04,VALID,1010.4,VALID,0,VALID,88.7028,VALID,0,VALID,26.0136,VALID,207,VALID,0,
2014-07-25, 01:23:04,VALID,1010.41,VALID,0,VALID,88.6418,VALID,0,VALID,25.9941,VALID,207,VALID,0,
2014-07-25, 01:24:04,VALID,1010.39,VALID,0,VALID,88.352,VALID,0,VALID,25.9746,VALID,207,VALID,0,
2014-07-25, 01:25:04,VALID,1010.4,VALID,0,VALID,88.3825,VALID,0,VALID,25.9551,VALID,207,VALID,0,
2014-07-25, 01:26:04,VALID,1010.39,VALID,0,VALID,88.5426,VALID,0,VALID,25.9161,VALID,207,VALID,0,
2014-07-25, 01:27:04,VALID,1010.4,VALID,0,VALID,88.5274,VALID,0,VALID,25.9161,VALID,207,VALID,0,
2014-07-25, 01:28:04,VALID,1010.38,VALID,0,VALID,88.6036,VALID,0,VALID,25.8966,VALID,207,VALID,0,
2014-07-25, 01:29:04,VALID,1010.34,VALID,0,VALID,88.7333,VALID,0,VALID,25.8771,VALID,207,VALID,0,
2014-07-25, 01:30:04,VALID,1010.37,VALID,0,VALID,89.0993,VALID,0,VALID,25.8576,VALID,207,VALID,0,
2014-07-25, 01:31:04,VALID,1010.33,VALID,0,VALID,89.2976,VALID,0,VALID,25.8966,VALID,207,VALID,0,
2014-07-25, 01:32:04,VALID,1010.31,VALID,0,VALID,88.9468,VALID,0,VALID,25.8966,VALID,207,VALID,0,
2014-07-25, 01:33:04,VALID,1010.32,VALID,0,VALID,88.7028,VALID,0,VALID,25.8791,VALID,207,VALID,0,
2014-07-25, 01:34:04,VALID,1010.32,VALID,0,VALID,88.6646,VALID,0,VALID,25.8381,VALID,207,VALID,0,
2014-07-25, 01:35:04,VALID,1010.31,VALID,0,VALID,88.9544,VALID,0,VALID,25.8186,VALID,207,VALID,0,
2014-07-25, 01:36:04,VALID,1010.33,VALID,0,VALID,88.6646,VALID,0,VALID,25.7796,VALID,207,VALID,0,
2014-07-25, 01:37:04,VALID,1010.32,VALID,0,VALID,88.779,VALID,0,VALID,25.7406,VALID,207,VALID,0,
2014-07-25, 01:38:04,VALID,1010.3,VALID,0,VALID,89.1298,VALID,0,VALID,25.6821,VALID,207,VALID,0,
2014-07-25, 01:39:04,VALID,1010.29,VALID,0,VALID,91.2574,VALID,0,VALID,25.6607,VALID,207,VALID,0,
2014-07-25, 01:40:04,VALID,1010.3,VALID,0,VALID,91.7607,VALID,0,VALID,25.7036,VALID,207,VALID,0,
2014-07-25, 01:41:04,VALID,1010.29,VALID,0,VALID,90.7922,VALID,0,VALID,25.7016,VALID,207,VALID,0,
2014-07-25, 01:42:04,VALID,1010.29,VALID,0,VALID,90.7083,VALID,0,VALID,25.6821,VALID,207,VALID,0,
2014-07-25, 01:43:04,VALID,1010.3,VALID,0,VALID,91.9285,VALID,0,VALID,25.6821,VALID,188,VALID,0,
2014-07-25, 01:44:04,VALID,1010.3,VALID,0,VALID,91.1125,VALID,0,VALID,25.7211,VALID,188,VALID,0,
2014-07-25, 01:45:04,VALID,1010.3,VALID,0,VALID,91.1811,VALID,0,VALID,25.7406,VALID,188,VALID,0,
2014-07-25, 01:46:04,VALID,1010.33,VALID,0,VALID,90.4719,VALID,0,VALID,25.7601,VALID,188,VALID,0,
2014-07-25, 01:47:04,VALID,1010.32,VALID,0,VALID,89.961,VALID,0,VALID,25.7406,VALID,188,VALID,0,
2014-07-25, 01:48:04,VALID,1010.3,VALID,0,VALID,90.0983,VALID,0,VALID,25.7426,VALID,188,VALID,0,
2014-07-25, 01:49:04,VALID,1010.31,VALID,0,VALID,90.5634,VALID,0,VALID,25.7406,VALID,188,VALID,0,
2014-07-25, 01:50:04,VALID,1010.27,VALID,0,VALID,90.3194,VALID,0,VALID,25.7406,VALID,188,VALID,0,
2014-07-25, 01:51:04,VALID,1010.24,VALID,0,VALID,89.6331,VALID,0,VALID,25.7211,VALID,188,VALID,0,
2014-07-25, 01:52:04,VALID,1010.22,VALID,0,VALID,89.7856,VALID,0,VALID,25.6821,VALID,188,VALID,0,
2014-07-25, 01:53:04,VALID,1010.22,VALID,0,VALID,89.8314,VALID,0,VALID,25.6821,VALID,188,VALID,0,
2014-07-25, 01:54:04,VALID,1010.19,VALID,0,VALID,89.9915,VALID,0,VALID,25.6841,VALID,188,VALID,0,
2014-07-25, 01:55:04,VALID,1010.2,VALID,0,VALID,90.4567,VALID,0,VALID,25.6626,VALID,188,VALID,0,
2014-07-25, 01:56:04,VALID,1010.18,VALID,0,VALID,90.5024,VALID,0,VALID,25.6626,VALID,188,VALID,0,
2014-07-25, 01:57:04,VALID,1010.19,VALID,0,VALID,90.6245,VALID,0,VALID,25.6841,VALID,188,VALID,0,
2014-07-25, 01:58:04,VALID,1010.17,VALID,0,VALID,90.5101,VALID,0,VALID,25.6626,VALID,188,VALID,0,
2014-07-25, 01:59:04,VALID,1010.16,VALID,0,VALID,90.0449,VALID,0.112112,VALID,25.6236,VALID,188,VALID,0,
2014-07-25, 02:00:04,VALID,1010.16,VALID,0,VALID,89.8314,VALID,0,VALID,25.5846,VALID,188,VALID,0,
2014-07-25, 02:01:04,VALID,1010.16,VALID,0,VALID,89.7704,VALID,0,VALID,25.5651,VALID,188,VALID,0,
2014-07-25, 02:02:04,VALID,1010.17,VALID,0,VALID,89.2137,VALID,0,VALID,25.4871,VALID,188,VALID,0,
2014-07-25, 02:03:04,VALID,1010.16,VALID,0,VALID,89.2366,VALID,0,VALID,25.4287,VALID,188,VALID,0,
2014-07-25, 02:04:04,VALID,1010.16,VALID,0,VALID,89.9305,VALID,0,VALID,25.3702,VALID,188,VALID,0,
2014-07-25, 02:05:04,VALID,1010.15,VALID,0,VALID,91.1125,VALID,0,VALID,25.3331,VALID,188,VALID,0,
2014-07-25, 02:06:04,VALID,1010.14,VALID,0,VALID,91.9895,VALID,0,VALID,25.2727,VALID,188,VALID,0,
2014-07-25, 02:07:04,VALID,1010.13,VALID,0,VALID,92.0276,VALID,0,VALID,25.2142,VALID,188,VALID,0,
2014-07-25, 02:08:04,VALID,1010.11,VALID,0,VALID,92.7444,VALID,0,VALID,25.1557,VALID,188,VALID,0,
2014-07-25, 02:09:04,VALID,1010.14,VALID,0,VALID,94.3534,VALID,0,VALID,25.0759,VALID,188,VALID,0,
2014-07-25, 02:10:04,VALID,1010.14,VALID,0,VALID,94.8262,VALID,0,VALID,25.0388,VALID,188,VALID,0,
2014-07-25, 02:11:04,VALID,1010.12,VALID,0,VALID,94.933,VALID,0,VALID,24.9608,VALID,188,VALID,0,
2014-07-25, 02:12:04,VALID,1010.16,VALID,0,VALID,94.9406,VALID,0,VALID,24.8828,VALID,188,VALID,0,
2014-07-25, 02:13:04,VALID,1010.16,VALID,0,VALID,95.4287,VALID,0,VALID,24.8049,VALID,188,VALID,0,
2014-07-25, 02:14:04,VALID,1010.13,VALID,0,VALID,96.1379,VALID,0,VALID,24.7464,VALID,188,VALID,0,
2014-07-25, 02:15:04,VALID,1010.15,VALID,0,VALID,96.6869,VALID,0,VALID,24.7093,VALID,188,VALID,0,
2014-07-25, 02:16:04,VALID,1010.16,VALID,0,VALID,97.1674,VALID,0,VALID,24.6489,VALID,188,VALID,0,
2014-07-25, 02:17:04,VALID,1010.11,VALID,0,VALID,98.1206,VALID,0,VALID,24.6313,VALID,188,VALID,0,
2014-07-25, 02:18:04,VALID,1010.13,VALID,0,VALID,98.5934,VALID,0,VALID,24.571,VALID,188,VALID,0,
2014-07-25, 02:19:04,VALID,1010.12,VALID,0,VALID,98.784,VALID,0,VALID,24.532,VALID,188,VALID,0,
2014-07-25, 02:20:04,VALID,1010.11,VALID,0,VALID,98.8984,VALID,0,VALID,24.493,VALID,188,VALID,0,
2014-07-25, 02:21:04,VALID,1010.11,VALID,0,VALID,98.9975,VALID,0,VALID,24.454,VALID,188,VALID,0,
2014-07-25, 02:22:04,VALID,1010.13,VALID,0,VALID,99.15,VALID,0,VALID,24.415,VALID,188,VALID,0,
2014-07-25, 02:23:04,VALID,1010.12,VALID,0,VALID,99.4246,VALID,0,VALID,24.3956,VALID,188,VALID,0,
2014-07-25, 02:24:04,VALID,1010.11,VALID,0,VALID,99.7067,VALID,0,VALID,24.415,VALID,188,VALID,0,
2014-07-25, 02:25:04,VALID,1010.09,VALID,0,VALID,99.9279,VALID,0,VALID,24.3956,VALID,188,VALID,0,
2014-07-25, 02:26:04,VALID,1010.1,VALID,0,VALID,100.027,VALID,0,VALID,24.3956,VALID,188,VALID,0,
2014-07-25, 02:27:04,VALID,1010.07,VALID,0,VALID,100.058,VALID,0,VALID,24.3761,VALID,188,VALID,0,
2014-07-25, 02:28:04,VALID,1010.04,VALID,0,VALID,99.9736,VALID,0,VALID,24.3176,VALID,188,VALID,0,
2014-07-25, 02:29:04,VALID,1010.04,VALID,0,VALID,100.065,VALID,0.112112,VALID,24.2786,VALID,188,VALID,0,
2014-07-25, 02:30:04,VALID,1010.05,VALID,0,VALID,100.157,VALID,0,VALID,24.2396,VALID,188,VALID,0,
2014-07-25, 02:31:04,VALID,1010.05,VALID,0,VALID,100.233,VALID,0,VALID,24.1812,VALID,188,VALID,0,
2014-07-25, 02:32:04,VALID,1010.06,VALID,0,VALID,100.286,VALID,0,VALID,24.1422,VALID,188,VALID,0,
2014-07-25, 02:33:04,VALID,1010.07,VALID,0,VALID,100.347,VALID,0,VALID,24.1032,VALID,188,VALID,0,
2014-07-25, 02:34:04,VALID,1010.09,VALID,0,VALID,100.431,VALID,0,VALID,24.0624,VALID,188,VALID,0,
2014-07-25, 02:35:04,VALID,1010.07,VALID,0,VALID,100.485,VALID,0,VALID,24.0448,VALID,188,VALID,0,
2014-07-25, 02:36:04,VALID,1010.07,VALID,0,VALID,100.576,VALID,0,VALID,24.0058,VALID,188,VALID,0,
2014-07-25, 02:37:04,VALID,1010.06,VALID,0,VALID,100.637,VALID,0,VALID,23.9668,VALID,188,VALID,0,
2014-07-25, 02:38:04,VALID,1010.03,VALID,0,VALID,100.66,VALID,0,VALID,23.9473,VALID,188,VALID,0,
2014-07-25, 02:39:04,VALID,1010.03,VALID,0,VALID,100.713,VALID,0,VALID,23.8889,VALID,188,VALID,0,
2014-07-25, 02:40:04,VALID,1010.04,VALID,0,VALID,100.698,VALID,0,VALID,23.8499,VALID,188,VALID,0,
2014-07-25, 02:41:04,VALID,1010.06,VALID,0,VALID,100.759,VALID,0,VALID,23.8304,VALID,188,VALID,0,
2014-07-25, 02:42:04,VALID,1010.07,VALID,0,VALID,100.797,VALID,0,VALID,23.7914,VALID,188,VALID,0,
2014-07-25, 02:43:04,VALID,1010.11,VALID,0,VALID,100.866,VALID,0,VALID,23.772,VALID,188,VALID,0,
2014-07-25, 02:44:04,VALID,1010.15,VALID,0,VALID,100.927,VALID,0,VALID,23.733,VALID,188,VALID,0,
2014-07-25, 02:45:04,VALID,1010.2,VALID,0,VALID,100.988,VALID,0,VALID,23.733,VALID,188,VALID,0,
2014-07-25, 02:46:04,VALID,1010.23,VALID,0,VALID,101.018,VALID,0,VALID,23.7135,VALID,188,VALID,0,
2014-07-25, 02:47:04,VALID,1010.23,VALID,0,VALID,101.079,VALID,0,VALID,23.694,VALID,188,VALID,0,
2014-07-25, 02:48:04,VALID,1010.2,VALID,0,VALID,101.14,VALID,0,VALID,23.655,VALID,188,VALID,0,
2014-07-25, 02:49:04,VALID,1010.21,VALID,0,VALID,101.217,VALID,0,VALID,23.6763,VALID,188,VALID,0,
2014-07-25, 02:50:04,VALID,1010.19,VALID,0,VALID,101.262,VALID,0,VALID,23.655,VALID,188,VALID,0,
2014-07-25, 02:51:04,VALID,1010.2,VALID,0,VALID,101.316,VALID,0,VALID,23.5966,VALID,188,VALID,0,
2014-07-25, 02:52:04,VALID,1010.2,VALID,0,VALID,101.331,VALID,0,VALID,23.5771,VALID,188,VALID,0,
2014-07-25, 02:53:04,VALID,1010.2,VALID,0,VALID,101.339,VALID,0,VALID,23.5576,VALID,188,VALID,0,
2014-07-25, 02:54:04,VALID,1010.19,VALID,0,VALID,101.4,VALID,0,VALID,23.5186,VALID,188,VALID,0,
2014-07-25, 02:55:04,VALID,1010.18,VALID,0,VALID,101.423,VALID,0,VALID,23.4992,VALID,188,VALID,0,
2014-07-25, 02:56:04,VALID,1010.19,VALID,0,VALID,101.438,VALID,0,VALID,23.4602,VALID,188,VALID,0,
2014-07-25, 02:57:04,VALID,1010.17,VALID,0,VALID,101.491,VALID,0,VALID,23.4212,VALID,188,VALID,0,
2014-07-25, 02:58:04,VALID,1010.22,VALID,0,VALID,101.567,VALID,0,VALID,23.4,VALID,188,VALID,0,
2014-07-25, 02:59:04,VALID,1010.22,VALID,0,VALID,101.598,VALID,0,VALID,23.3823,VALID,188,VALID,0,
2014-07-25, 03:00:04,VALID,1010.22,VALID,0,VALID,101.628,VALID,0,VALID,23.3628,VALID,188,VALID,0,
2014-07-25, 03:01:04,VALID,1010.26,VALID,0,VALID,101.628,VALID,0,VALID,23.322,VALID,188,VALID,0,
2014-07-25, 03:02:04,VALID,1010.24,VALID,0,VALID,101.689,VALID,0,VALID,23.3256,VALID,188,VALID,0,
2014-07-25, 03:03:04,VALID,1010.25,VALID,0,VALID,101.728,VALID,0,VALID,23.3043,VALID,188,VALID,0,
2014-07-25, 03:04:04,VALID,1010.27,VALID,0,VALID,101.758,VALID,0,VALID,23.2848,VALID,188,VALID,0,
2014-07-25, 03:05:04,VALID,1010.27,VALID,0,VALID,101.781,VALID,0,VALID,23.2459,VALID,188,VALID,0,
2014-07-25, 03:06:04,VALID,1010.3,VALID,0,VALID,101.811,VALID,0,VALID,23.2051,VALID,188,VALID,0,
2014-07-25, 03:07:04,VALID,1010.29,VALID,0,VALID,101.85,VALID,0,VALID,23.1874,VALID,188,VALID,0,
2014-07-25, 03:08:04,VALID,1010.28,VALID,0,VALID,101.888,VALID,0,VALID,23.1874,VALID,188,VALID,0,
2014-07-25, 03:09:04,VALID,1010.25,VALID,0,VALID,101.949,VALID,0,VALID,23.1485,VALID,188,VALID,0,
2014-07-25, 03:10:04,VALID,1010.23,VALID,0,VALID,101.918,VALID,0.112112,VALID,23.1077,VALID,188,VALID,0,
2014-07-25, 03:11:04,VALID,1010.22,VALID,0,VALID,101.941,VALID,0,VALID,23.1095,VALID,188,VALID,0,
2014-07-25, 03:12:04,VALID,1010.2,VALID,0,VALID,101.979,VALID,0,VALID,23.09,VALID,188,VALID,0,
2014-07-25, 03:13:04,VALID,1010.18,VALID,0,VALID,101.987,VALID,0,VALID,23.0511,VALID,188,VALID,0,
2014-07-25, 03:14:04,VALID,1010.19,VALID,0,VALID,102.033,VALID,0,VALID,22.9909,VALID,188,VALID,0,
2014-07-25, 03:15:04,VALID,1010.23,VALID,0,VALID,102.025,VALID,0,VALID,22.9714,VALID,188,VALID,0,
2014-07-25, 03:16:04,VALID,1010.24,VALID,0,VALID,102.071,VALID,0,VALID,22.9519,VALID,188,VALID,0,
2014-07-25, 03:17:04,VALID,1010.26,VALID,0,VALID,102.116,VALID,0,VALID,22.9536,VALID,188,VALID,0,
2014-07-25, 03:18:04,VALID,1010.28,VALID,0,VALID,102.162,VALID,0,VALID,22.9342,VALID,188,VALID,0,
2014-07-25, 03:19:04,VALID,1010.31,VALID,0,VALID,102.177,VALID,0,VALID,22.8935,VALID,188,VALID,0,
2014-07-25, 03:20:04,VALID,1010.3,VALID,0,VALID,102.216,VALID,0,VALID,22.9147,VALID,188,VALID,0,
2014-07-25, 03:21:04,VALID,1010.29,VALID,0,VALID,102.261,VALID,0.112112,VALID,22.874,VALID,188,VALID,0,
2014-07-25, 03:22:04,VALID,1010.29,VALID,0,VALID,102.246,VALID,0,VALID,22.835,VALID,188,VALID,0,
2014-07-25, 03:23:04,VALID,1010.28,VALID,0,VALID,102.277,VALID,0,VALID,22.8368,VALID,188,VALID,0,
2014-07-25, 03:24:04,VALID,1010.27,VALID,0,VALID,102.277,VALID,0,VALID,22.8173,VALID,188,VALID,0,
2014-07-25, 03:25:04,VALID,1010.29,VALID,0,VALID,102.338,VALID,0,VALID,22.7766,VALID,188,VALID,0,
2014-07-25, 03:26:04,VALID,1010.24,VALID,0,VALID,102.399,VALID,0,VALID,22.7376,VALID,188,VALID,0,
2014-07-25, 03:27:04,VALID,1010.25,VALID,0,VALID,102.421,VALID,0,VALID,22.7588,VALID,188,VALID,0,
2014-07-25, 03:28:04,VALID,1010.24,VALID,0,VALID,102.444,VALID,0,VALID,22.7394,VALID,188,VALID,0,
2014-07-25, 03:29:04,VALID,1010.25,VALID,0,VALID,102.505,VALID,0.112112,VALID,22.6987,VALID,188,VALID,0,
2014-07-25, 03:30:04,VALID,1010.23,VALID,0,VALID,102.559,VALID,0,VALID,22.7004,VALID,188,VALID,0,
2014-07-25, 03:31:04,VALID,1010.24,VALID,0,VALID,102.582,VALID,0.112112,VALID,22.6597,VALID,188,VALID,0,
2014-07-25, 03:32:04,VALID,1010.21,VALID,0,VALID,102.612,VALID,0,VALID,22.6809,VALID,188,VALID,0,
2014-07-25, 03:33:04,VALID,1010.21,VALID,0,VALID,102.673,VALID,0.112112,VALID,22.6614,VALID,188,VALID,0,
2014-07-25, 03:34:04,VALID,1010.23,VALID,0,VALID,102.666,VALID,0.112112,VALID,22.642,VALID,188,VALID,0,
2014-07-25, 03:35:04,VALID,1010.22,VALID,0,VALID,102.719,VALID,0,VALID,22.642,VALID,188,VALID,0,
2014-07-25, 03:36:04,VALID,1010.24,VALID,0,VALID,102.711,VALID,0,VALID,22.603,VALID,188,VALID,0,
2014-07-25, 03:37:04,VALID,1010.28,VALID,0,VALID,102.772,VALID,0,VALID,22.603,VALID,188,VALID,0,
2014-07-25, 03:38:04,VALID,1010.31,VALID,0,VALID,102.795,VALID,0,VALID,22.564,VALID,188,VALID,0,
2014-07-25, 03:39:04,VALID,1010.29,VALID,0,VALID,102.856,VALID,0.112112,VALID,22.5835,VALID,188,VALID,0,
2014-07-25, 03:40:04,VALID,1010.26,VALID,0,VALID,102.894,VALID,0,VALID,22.564,VALID,188,VALID,0,
2014-07-25, 03:41:04,VALID,1010.27,VALID,0,VALID,102.917,VALID,0,VALID,22.5446,VALID,188,VALID,0,
2014-07-25, 03:42:04,VALID,1010.24,VALID,0,VALID,102.925,VALID,0.112112,VALID,22.5251,VALID,188,VALID,0,
2014-07-25, 03:43:04,VALID,1010.24,VALID,0,VALID,102.963,VALID,0,VALID,22.4861,VALID,188,VALID,0,
2014-07-25, 03:44:04,VALID,1010.24,VALID,0,VALID,102.955,VALID,0.112112,VALID,22.4667,VALID,188,VALID,0,
2014-07-25, 03:45:04,VALID,1010.24,VALID,0,VALID,102.986,VALID,0,VALID,22.4472,VALID,188,VALID,0,
2014-07-25, 03:46:04,VALID,1010.25,VALID,0,VALID,103.009,VALID,0,VALID,22.4472,VALID,188,VALID,0,
2014-07-25, 03:47:04,VALID,1010.26,VALID,0,VALID,103.062,VALID,0.112112,VALID,22.387,VALID,188,VALID,0,
2014-07-25, 03:48:04,VALID,1010.21,VALID,0,VALID,103.123,VALID,0,VALID,22.4082,VALID,188,VALID,0,
2014-07-25, 03:49:04,VALID,1010.19,VALID,0,VALID,103.169,VALID,0.112112,VALID,22.4082,VALID,188,VALID,0,
2014-07-25, 03:50:04,VALID,1010.16,VALID,0,VALID,103.237,VALID,0,VALID,22.4082,VALID,188,VALID,0,
2014-07-25, 03:51:04,VALID,1010.18,VALID,0,VALID,103.276,VALID,0.112112,VALID,22.3676,VALID,188,VALID,0,
2014-07-25, 03:52:04,VALID,1010.21,VALID,0,VALID,103.306,VALID,0,VALID,22.3887,VALID,188,VALID,0,
2014-07-25, 03:53:04,VALID,1010.25,VALID,0,VALID,103.344,VALID,0,VALID,22.3887,VALID,188,VALID,0,
2014-07-25, 03:54:04,VALID,1010.26,VALID,0,VALID,103.413,VALID,0,VALID,22.3693,VALID,188,VALID,0,
2014-07-25, 03:55:04,VALID,1010.26,VALID,0,VALID,103.436,VALID,0,VALID,22.3693,VALID,188,VALID,0,
2014-07-25, 03:56:04,VALID,1010.27,VALID,0,VALID,103.504,VALID,0,VALID,22.3481,VALID,188,VALID,0,
2014-07-25, 03:57:04,VALID,1010.28,VALID,0,VALID,103.535,VALID,0.112112,VALID,22.3887,VALID,188,VALID,0,
2014-07-25, 03:58:04,VALID,1010.27,VALID,0,VALID,103.55,VALID,0.112112,VALID,22.3693,VALID,188,VALID,0,